Theta_e
353 352 352 353 353 354 354 353 354 353 353 354 354 354 355 354 354 354 354 353 353 352 353 353 351 351 353 351 348 346 343 342 342 342 344 347 348 346 342 340 339 339 341 343 346 347 347 347 347 347 347 347 346 346 346 345 345 344 344 345 346 346 345 344 343 343 344 344 344 344 343 342 340 339 339 339 338 338 338 338 338 338 338 339 340
353 353 353 354 355 355 355 354 355 354 354 354 355 355 355 354 355 354 354 354 353 354 354 354 351 350 351 349 345 344 343 341 340 341 344 347 346 345 342 340 339 339 339 340 343 345 346 347 348 348 346 347 347 347 347 346 345 345 345 345 346 346 345 345 345 344 344 344 344 344 344 343 342 341 340 339 339 339 339 339 339 338 338 339 339
354 354 354 355 355 355 355 354 355 355 354 355 355 355 354 355 356 355 355 355 354 355 354 353 351 348 347 345 343 342 341 337 338 341 344 346 347 346 344 344 342 340 339 339 340 342 343 345 347 348 347 346 346 347 348 348 347 346 346 346 346 346 345 345 345 345 344 344 344 344 344 343 343 343 342 341 341 340 340 341 341 340 340 340 340
357 357 355 355 354 355 355 354 355 355 355 356 356 356 354 355 357 357 357 355 354 354 353 350 349 346 343 342 340 339 339 337 339 342 343 346 348 348 346 345 345 341 340 341 340 340 341 343 346 347 348 347 346 346 347 348 348 347 347 346 346 346 345 345 345 345 344 345 345 345 344 344 343 343 342 342 342 342 342 341 341 341 341 341 341
357 357 355 355 354 355 356 355 356 356 357 358 357 356 355 355 356 357 357 355 355 353 351 348 346 344 341 339 338 338 338 338 341 342 343 345 347 348 348 347 347 344 342 341 341 340 339 340 344 346 347 348 347 347 347 347 348 348 347 346 346 346 346 345 345 345 344 344 345 345 344 343 343 342 342 342 342 343 342 343 343 342 342 342 341
356 357 356 353 353 356 357 356 357 357 358 359 358 355 356 355 355 356 355 355 355 352 349 347 345 342 341 339 338 338 338 340 341 342 343 344 346 347 349 349 349 348 346 343 342 341 339 338 342 344 346 347 347 347 346 346 347 347 346 346 345 346 346 346 345 344 344 344 344 344 344 343 343 342 343 343 343 342 341 342 343 343 342 342 341
357 357 356 353 353 356 357 357 358 358 358 360 358 355 355 355 355 355 356 355 352 350 347 346 344 342 341 340 338 338 340 342 342 342 343 345 347 348 348 349 349 349 348 347 345 341 337 337 339 343 344 346 347 346 346 346 346 346 346 346 345 346 346 345 345 345 344 344 343 343 343 343 343 343 343 343 343 343 341 341 342 342 342 341 341
356 357 357 354 353 355 357 358 360 359 359 361 359 356 356 356 356 356 356 355 350 348 347 344 342 341 339 339 337 337 340 342 343 344 345 347 348 349 350 348 348 349 348 349 348 341 336 336 337 341 343 344 346 346 347 348 347 347 347 346 346 345 345 345 346 345 345 344 344 343 343 343 343 343 343 342 342 343 342 341 341 340 340 340 340
356 357 357 355 354 355 356 359 361 360 361 362 358 356 356 356 359 358 356 355 350 346 345 342 341 340 340 340 339 338 340 343 345 346 347 349 349 349 350 349 348 349 348 349 350 346 341 339 337 340 343 344 345 346 347 348 348 348 348 347 346 345 345 345 346 345 345 345 345 345 345 344 343 343 343 342 342 342 342 342 341 341 341 340 340
357 357 357 355 354 355 356 360 361 361 362 361 358 357 356 356 358 359 356 353 349 346 344 342 339 338 339 341 340 339 340 343 345 346 346 347 349 349 350 350 348 348 347 348 350 349 346 344 341 341 343 344 344 345 346 347 347 347 347 346 346 346 345 345 345 344 345 345 345 344 344 344 344 344 344 343 343 343 343 343 342 342 342 342 341
357 357 357 355 355 355 357 361 362 362 363 360 357 357 358 359 358 359 358 352 348 346 343 341 338 337 338 340 340 340 341 342 343 344 344 345 347 348 349 349 348 348 348 348 348 348 347 348 347 345 344 343 343 344 344 345 345 346 347 346 346 346 345 345 345 345 344 345 344 344 344 344 344 344 344 344 343 343 343 342 342 341 341 341 341
357 357 357 356 356 355 358 361 361 362 364 361 358 358 361 362 360 359 358 352 349 346 343 341 339 339 337 336 339 340 341 342 342 343 343 344 345 345 345 346 346 346 347 348 347 347 348 349 348 348 346 342 341 343 343 343 345 345 345 346 346 346 346 346 346 345 345 345 344 344 344 344 344 344 344 343 343 342 342 342 342 342 342 341 341
358 357 357 357 356 357 361 364 362 361 364 364 361 361 363 363 361 358 355 351 348 346 343 340 338 340 338 336 338 340 341 341 341 342 343 344 344 343 342 343 343 343 345 346 347 347 349 349 348 348 348 345 343 343 342 343 344 344 345 346 346 346 346 346 346 346 345 345 345 345 345 345 345 344 344 344 344 343 343 342 342 342 342 342 342
358 357 357 358 358 360 363 366 363 361 364 365 363 363 364 364 361 357 353 350 347 345 342 340 340 339 339 339 339 338 340 341 340 341 343 343 343 342 341 341 341 341 342 343 344 346 347 348 348 348 348 347 347 346 345 345 345 344 344 345 345 345 345 345 346 345 345 345 345 345 345 344 344 344 343 343 343 343 342 342 342 342 342 342 342
358 358 357 358 362 365 364 365 365 362 364 366 364 364 365 365 362 355 352 350 348 346 342 342 342 336 337 341 340 337 337 339 340 340 342 343 342 342 341 340 340 339 340 340 340 342 343 345 348 348 347 346 348 349 347 346 344 343 343 344 343 344 344 343 343 344 345 345 345 345 345 344 344 343 343 343 343 343 342 342 341 341 342 343 343
358 358 357 358 364 367 364 364 366 365 365 366 365 364 365 366 362 355 352 350 346 346 343 341 340 337 340 341 338 339 338 338 340 339 340 341 341 342 341 341 340 339 339 338 338 339 340 343 344 346 345 345 347 348 346 344 341 338 339 342 343 342 342 340 340 342 342 341 340 339 339 338 338 338 338 336 336 335 334 334 333 334 336 339 340
357 358 358 359 364 366 365 364 366 367 367 365 363 361 362 363 359 355 353 349 344 346 345 341 339 340 343 340 338 343 342 337 338 339 339 339 340 342 341 341 341 340 338 337 338 338 339 340 342 343 343 344 346 346 345 344 342 339 335 333 336 337 336 333 330 330 329 326 325 324 323 323 323 323 322 321 321 321 320 321 322 322 324 325 327
356 358 358 359 362 366 366 365 366 368 367 364 362 359 361 362 358 355 354 349 344 346 346 342 340 341 342 344 343 344 343 338 340 341 341 340 340 341 342 342 341 340 339 337 337 338 338 339 340 341 341 341 342 343 343 343 344 344 333 321 321 324 323 322 319 319 318 316 317 317 316 317 316 316 316 316 316 316 316 316 317 317 317 317 317
357 358 359 359 361 364 365 364 364 366 366 365 363 360 361 361 357 355 354 350 346 347 346 343 342 341 340 342 342 342 344 343 343 343 343 342 341 341 342 342 341 340 339 337 336 336 337 339 339 339 340 339 339 339 340 340 339 335 325 317 317 317 317 317 316 317 319 320 321 322 321 320 319 318 317 317 316 316 317 317 317 317 318 319 320
357 358 359 360 361 362 364 364 362 361 363 364 362 360 360 360 357 355 355 352 348 346 347 345 342 340 340 341 340 340 343 344 344 344 344 343 342 341 341 340 339 339 338 336 335 336 335 337 339 338 339 339 339 337 334 333 332 325 320 319 318 317 318 318 319 321 324 326 327 327 327 326 325 324 322 320 319 318 318 318 319 321 323 324 325
360 358 360 361 361 361 362 364 362 360 360 360 359 360 362 360 358 357 355 353 349 347 348 347 343 342 341 342 342 340 340 342 344 344 343 344 342 340 340 339 337 336 336 336 335 335 334 335 337 338 339 338 338 338 335 335 336 330 325 323 322 321 322 323 325 327 328 328 329 329 329 329 329 329 328 327 326 325 324 324 325 327 328 329 329
362 360 360 361 361 361 361 362 361 360 359 360 359 361 362 361 359 358 356 354 350 348 347 345 344 345 342 342 343 342 341 342 343 342 343 344 343 340 339 338 338 336 335 335 335 335 336 336 336 336 338 338 338 337 337 338 339 335 329 327 327 327 326 327 328 328 328 329 329 329 329 329 330 330 330 330 330 330 330 330 330 330 330 330 330
362 360 360 361 361 362 361 360 360 358 359 360 360 360 361 361 359 358 357 354 351 349 348 344 343 346 345 344 344 342 342 343 342 341 342 343 342 341 339 337 338 338 336 337 336 335 337 336 336 336 336 337 337 337 338 338 339 337 331 328 329 329 329 329 328 329 329 329 329 329 329 329 329 329 329 329 330 330 330 330 330 331 331 331 331
361 360 360 360 361 363 361 359 359 358 359 360 360 359 359 359 358 358 358 355 351 350 349 346 343 345 347 345 343 342 342 342 342 342 341 342 342 341 340 338 338 339 339 339 339 337 338 337 336 336 336 337 337 337 338 338 338 337 332 328 328 329 329 329 329 329 329 329 330 329 330 329 329 330 330 330 330 330 330 330 330 330 330 330 331
361 360 360 359 360 363 363 361 359 359 360 360 360 360 359 358 358 358 358 356 353 351 350 347 344 344 345 344 343 342 342 341 341 342 341 341 342 341 340 339 336 338 339 340 339 337 337 337 336 336 337 337 338 338 338 338 339 337 333 331 331 329 329 329 329 329 329 329 330 329 330 330 330 330 330 330 330 330 330 330 330 330 330 330 330
361 360 359 359 359 362 363 362 361 360 361 361 361 361 361 360 359 358 358 357 354 352 351 348 345 344 344 344 344 342 342 341 340 340 341 341 341 340 341 341 337 337 340 340 339 338 337 336 336 336 337 338 338 338 339 338 339 338 334 335 335 333 331 330 329 329 329 329 330 330 330 330 330 330 330 330 330 331 331 331 331 331 331 330 330
361 360 359 359 358 361 364 364 362 361 363 363 363 363 362 362 361 360 358 357 355 353 351 349 346 346 345 344 344 342 342 343 340 339 339 340 340 339 341 343 340 338 340 341 339 338 337 336 336 336 337 339 338 339 340 338 338 338 336 335 337 337 335 333 331 329 329 329 329 330 330 330 330 330 330 330 331 332 332 332 332 332 332 331 331
361 361 361 361 360 361 364 365 364 362 363 365 363 362 362 363 362 361 359 358 356 353 351 350 347 346 346 345 344 343 342 342 342 340 339 340 342 341 341 343 344 342 341 341 341 339 336 335 336 337 337 339 340 339 339 339 337 337 336 335 336 337 337 336 334 332 330 330 329 329 329 329 330 329 330 329 329 330 330 332 332 332 332 332 332
360 361 362 362 362 362 363 365 365 363 363 364 363 361 361 362 362 363 361 358 357 355 352 351 349 346 346 345 344 344 343 342 343 342 341 342 343 343 342 342 343 345 344 343 342 340 337 335 335 337 337 340 341 340 339 339 338 337 336 337 337 337 337 337 337 334 331 331 330 329 329 329 329 329 328 327 326 325 326 328 329 330 330 330 330
359 360 362 364 364 363 364 365 365 364 363 363 363 361 361 361 361 363 362 359 358 356 353 352 351 348 345 345 345 343 343 344 343 341 342 344 344 343 343 342 342 344 345 345 344 341 339 337 336 337 339 340 341 340 339 339 339 337 337 337 338 337 337 337 337 333 330 330 330 329 329 328 327 327 325 324 324 324 325 325 326 327 327 328 328
361 361 361 364 366 365 365 366 365 364 363 363 363 363 362 361 360 361 362 360 358 356 355 353 351 350 347 345 346 344 343 344 344 341 341 344 345 343 342 342 342 343 343 345 345 342 340 339 338 339 341 342 341 339 339 340 339 338 337 337 338 338 337 337 336 332 329 329 328 328 327 327 326 325 324 323 323 323 324 324 326 327 328 328 328
363 362 362 363 365 365 365 365 363 363 364 363 364 364 363 361 360 360 360 361 360 358 356 354 352 351 349 346 346 346 345 344 345 343 341 343 345 343 342 342 342 343 343 343 345 344 342 340 339 339 341 341 340 339 340 340 340 339 337 337 339 339 338 338 335 331 328 328 328 327 328 327 326 325 324 323 323 323 322 324 326 327 327 328 328
363 364 364 364 364 365 365 365 363 363 364 364 363 364 364 362 361 360 360 360 359 358 357 355 353 352 351 349 348 348 348 346 346 346 342 343 345 343 342 342 342 342 343 343 344 344 343 341 340 338 339 341 340 339 339 340 341 341 338 337 339 341 339 337 335 333 332 332 331 330 329 329 328 327 327 325 323 322 321 323 324 325 327 327 327
364 364 365 365 365 365 365 365 365 363 364 365 364 364 364 363 362 361 360 360 359 358 357 356 355 353 352 351 349 349 349 348 347 347 344 343 345 344 342 342 343 343 344 343 343 343 343 342 341 340 339 339 340 341 340 339 339 342 341 338 338 340 340 337 336 337 337 336 335 333 331 331 330 329 327 325 323 321 320 321 322 324 325 323 323
364 365 365 366 366 366 365 365 365 364 364 365 365 364 364 364 363 361 360 361 360 359 358 357 356 355 354 353 351 349 349 348 347 347 346 344 345 345 343 342 343 344 344 344 343 343 343 342 342 342 341 340 340 341 341 341 339 340 342 341 339 339 339 338 337 337 338 337 336 335 333 332 330 329 327 324 321 320 320 321 322 324 324 322 321
363 365 366 366 367 367 366 365 366 365 365 366 366 365 365 365 364 361 361 361 361 360 360 359 358 356 355 355 353 351 349 349 348 347 346 345 345 345 344 342 342 343 343 343 344 344 342 341 341 342 342 341 341 340 340 340 340 339 340 341 341 340 340 339 338 338 338 338 337 336 335 333 332 330 327 323 322 321 321 322 322 323 324 323 323
361 363 366 366 367 369 368 366 366 366 366 366 367 366 366 365 364 362 361 362 362 362 361 361 359 358 357 356 355 353 350 350 349 347 346 346 345 345 344 344 343 343 343 343 344 345 343 341 341 342 343 342 342 341 340 339 340 340 339 340 341 340 340 339 338 338 339 339 338 337 336 334 333 331 328 325 323 323 324 323 323 323 323 323 323
361 361 365 367 367 369 369 368 367 367 368 367 367 367 365 365 365 364 362 362 362 363 363 362 360 359 358 358 357 355 352 350 350 349 346 346 346 345 345 345 344 344 343 343 344 346 345 343 341 341 343 344 343 342 341 340 340 341 340 340 340 340 340 340 340 339 338 338 338 337 336 335 333 332 332 329 327 326 325 323 323 323 323 322 322
364 361 363 367 368 368 370 369 368 368 368 368 368 368 366 365 365 365 363 362 363 364 363 363 361 360 359 358 358 357 354 352 351 350 348 346 346 346 345 345 345 344 344 343 343 345 346 345 342 341 342 344 344 343 342 342 341 341 341 341 342 341 341 341 341 340 338 338 338 338 336 335 333 332 332 331 329 328 326 324 323 323 323 323 322
365 363 362 365 368 368 369 370 369 369 369 369 368 369 367 365 365 365 364 363 364 364 364 362 361 360 359 358 358 357 356 354 352 352 351 348 346 346 346 347 346 345 344 344 344 344 345 345 344 341 341 342 344 344 343 343 343 342 341 340 341 342 342 343 343 342 341 340 340 339 336 335 334 333 333 332 331 330 330 328 327 327 327 325 323
365 365 363 363 367 369 369 370 369 369 370 370 369 368 368 367 365 365 364 363 363 363 364 363 361 360 359 358 358 357 356 355 353 352 352 350 349 348 348 348 348 347 346 345 345 345 344 345 345 343 341 341 343 344 343 343 344 344 343 341 341 340 340 342 343 343 343 343 341 339 337 335 335 334 334 333 333 332 332 331 330 330 329 327 325
365 366 364 363 365 368 369 370 370 370 370 370 368 366 366 367 366 365 364 364 363 362 363 363 361 360 359 358 357 356 356 355 354 353 352 351 350 350 351 350 350 349 348 347 346 345 345 345 346 344 343 342 343 343 342 343 343 344 343 342 342 341 340 341 342 342 343 342 341 340 338 336 336 335 334 334 333 333 332 331 331 330 328 327 326
365 366 366 365 364 366 368 370 370 370 370 370 368 365 363 364 365 366 365 364 364 363 363 363 362 360 359 359 358 357 356 355 354 353 351 350 350 350 351 352 351 351 350 349 348 346 344 345 346 345 343 343 342 341 341 341 342 342 342 341 343 343 342 343 344 343 343 342 342 341 338 336 336 335 334 333 333 332 331 329 329 328 326 325 325
366 367 367 367 366 365 366 368 369 370 370 369 368 365 363 361 362 364 365 364 364 363 363 363 362 360 359 359 359 357 357 356 354 354 353 351 350 349 349 351 352 351 350 350 349 347 345 345 346 345 343 343 342 341 340 340 340 341 341 341 342 343 344 344 344 343 342 341 341 340 338 336 335 333 333 332 332 330 328 328 328 327 326 325 324
367 368 368 368 367 366 365 367 368 369 370 369 368 366 363 361 360 362 364 365 364 362 363 362 361 361 360 359 359 359 358 356 355 354 353 351 350 349 348 349 350 350 350 349 349 348 347 346 346 345 343 343 342 341 340 339 340 341 341 342 343 344 345 344 343 342 341 340 340 339 337 335 333 331 331 331 330 328 327 327 327 325 324 324 322
368 369 369 369 369 368 366 366 366 368 369 369 368 366 364 362 360 360 362 364 364 363 363 363 362 361 361 361 360 359 359 358 356 355 355 353 351 349 348 348 348 349 349 348 347 347 347 347 347 346 344 343 342 341 340 339 339 340 341 342 343 344 344 343 342 342 341 340 339 338 336 334 332 330 329 328 328 328 327 327 325 323 323 321 320
369 369 369 369 369 369 368 367 366 367 367 367 368 367 365 363 361 360 361 363 365 365 365 364 363 362 362 362 361 360 360 359 357 355 356 355 353 350 349 348 348 348 348 347 346 345 345 346 346 347 346 343 342 340 340 340 341 341 341 341 342 343 343 342 341 340 339 339 338 336 335 334 331 329 328 327 327 327 326 326 324 322 321 320 319
369 369 369 370 369 369 369 368 367 366 366 366 366 367 366 364 362 361 360 362 364 365 365 365 364 363 363 363 362 361 360 361 359 355 354 356 355 352 350 349 349 348 348 346 345 344 343 343 344 345 346 344 342 341 340 340 342 342 342 341 341 342 341 340 339 338 338 338 336 335 335 334 331 329 328 327 326 326 325 325 324 322 321 320 319
368 369 369 370 369 369 369 369 368 367 366 365 365 366 365 364 362 361 360 362 363 363 364 364 364 364 364 363 363 362 361 361 360 356 353 354 356 355 352 351 350 349 349 347 345 344 342 342 342 343 344 343 342 340 340 340 341 342 342 341 340 339 339 339 339 338 337 336 335 335 335 333 330 328 327 326 325 325 324 324 323 322 321 319 319
368 367 369 369 369 369 369 369 369 368 367 367 366 365 365 364 363 361 360 361 362 362 363 364 363 364 364 363 362 362 361 361 361 358 353 353 356 356 354 352 351 350 349 348 347 345 343 342 342 341 342 342 341 340 339 339 340 340 341 341 339 337 337 338 338 337 335 333 333 334 334 332 329 327 326 326 325 324 323 323 322 321 320 319 319
368 367 367 368 369 369 369 369 369 368 368 367 366 365 364 363 363 361 360 361 362 362 362 363 363 364 363 363 361 360 360 360 360 359 355 353 355 357 355 353 352 351 350 349 349 347 344 343 342 341 341 341 340 340 340 339 339 339 340 341 339 337 337 337 337 336 334 332 332 332 332 330 328 327 325 324 324 323 323 322 321 321 320 320 319
Wind_Speed
6 6 6 5 4 4 4 3 2 1 0 1 2 2 2 2 2 1 2 3 3 3 3 3 1 1 2 1 1 2 2 1 3 6 8 9 8 6 7 8 9 8 7 6 6 5 5 6 6 6 6 6 6 6 6 6 5 7 9 8 8 7 6 5 5 5 5 5 4 4 3 3 3 2 2 2 3 3 3 3 4 4 5 5 5
6 6 6 5 5 4 4 2 2 1 1 1 1 2 2 2 2 3 3 3 3 4 3 3 2 2 3 2 1 1 1 1 2 5 6 9 9 7 7 7 8 7 7 7 6 5 4 5 6 6 6 6 6 6 6 6 5 7 9 8 7 8 7 6 5 5 5 5 5 5 4 4 4 4 4 4 4 5 4 4 4 4 5 5 5
5 6 6 5 5 4 4 3 2 1 1 1 1 1 1 2 2 3 3 2 3 3 3 2 1 2 2 1 1 1 1 1 2 5 6 7 9 9 8 7 6 6 7 7 6 5 4 5 6 6 7 7 7 7 6 6 6 7 8 7 7 7 8 7 6 6 6 6 6 5 6 6 5 5 5 6 6 6 6 5 5 5 5 5 6
3 5 6 5 5 5 4 3 3 2 1 1 2 2 1 2 2 3 3 3 3 2 2 1 1 1 2 0 1 3 2 1 3 5 5 5 8 10 9 8 7 6 6 7 6 6 5 4 5 6 7 7 7 7 7 6 6 7 7 6 6 7 8 7 7 7 7 6 6 6 7 7 6 6 6 7 7 7 7 7 7 6 6 6 7
5 6 6 5 5 5 5 4 3 2 1 1 3 2 1 2 2 3 3 3 3 2 2 1 1 0 1 0 2 4 2 1 4 4 4 4 8 10 9 8 7 6 5 5 5 5 4 4 5 5 7 8 8 8 8 7 7 7 7 7 6 7 7 7 8 8 8 8 7 7 7 7 7 7 7 7 7 8 8 9 8 7 7 7 7
7 7 6 6 6 5 5 4 3 2 2 2 3 2 1 2 2 3 3 3 2 2 1 1 0 1 1 3 3 4 3 2 4 3 3 3 6 9 9 8 8 7 5 4 3 4 4 4 4 4 5 7 8 8 8 8 8 7 7 7 6 6 7 7 8 8 8 8 8 8 8 8 8 7 7 7 7 8 8 9 8 8 8 8 8
8 7 7 7 6 6 5 4 3 2 3 2 2 2 1 2 2 3 3 2 1 1 1 1 1 1 2 3 3 3 3 4 3 2 3 2 3 6 8 8 7 6 5 4 3 4 4 4 4 4 4 5 6 7 7 8 8 8 6 6 6 7 8 8 9 8 8 9 9 9 9 9 8 7 8 8 8 8 8 9 9 8 8 9 9
9 8 7 7 7 6 5 4 3 3 3 1 2 2 2 2 2 3 3 2 1 2 2 1 1 2 2 2 2 3 4 5 2 1 3 2 3 4 7 8 6 6 6 5 4 4 5 4 4 4 4 4 5 6 7 7 7 7 6 6 8 8 8 8 8 8 8 8 9 9 10 9 8 8 8 9 9 9 10 10 10 10 10 10 11
11 9 8 8 7 6 5 5 4 4 3 2 3 2 2 3 2 2 3 2 0 2 1 1 1 1 1 1 3 2 3 4 1 2 2 2 4 4 5 6 7 6 6 7 6 4 4 4 4 4 4 4 5 5 6 6 6 6 6 8 9 8 8 8 8 7 7 7 8 9 9 9 8 9 9 9 10 9 10 11 11 12 12 12 12
11 10 9 8 8 6 5 5 5 4 3 4 4 2 3 2 1 2 2 1 1 2 2 2 3 2 0 2 2 3 2 5 1 2 2 2 4 5 5 5 6 6 5 7 7 5 4 5 5 5 3 3 5 5 5 5 5 5 6 8 9 8 8 8 9 8 7 7 8 9 9 8 8 9 9 9 9 9 10 11 12 13 13 13 13
12 11 10 9 8 8 6 5 5 5 4 5 4 2 3 3 2 1 0 0 1 3 3 2 1 1 2 3 2 3 2 3 1 2 2 2 4 4 5 5 5 4 5 7 6 5 4 4 6 6 4 4 4 4 3 4 4 4 5 6 7 6 7 8 8 8 8 8 8 9 8 7 8 8 8 8 9 9 10 11 12 13 13 13 13
13 12 11 10 9 8 6 6 6 5 5 5 3 2 3 3 2 1 1 2 2 2 2 2 1 1 4 4 1 1 1 0 1 2 3 2 3 4 5 5 5 4 3 4 4 4 4 3 5 6 5 5 4 3 3 3 4 4 4 4 4 4 5 6 7 7 7 7 7 8 7 6 7 8 8 9 8 8 9 10 11 11 12 12 12
13 13 12 11 10 8 6 6 7 6 5 4 4 3 3 4 3 2 2 3 2 2 4 3 1 2 0 0 2 2 3 2 2 2 3 3 3 3 5 5 5 5 4 4 4 4 4 3 5 6 5 5 4 3 3 4 4 2 3 3 3 3 3 4 4 5 5 5 6 7 7 7 7 8 8 8 8 8 9 9 9 10 11 11 11
14 13 12 12 11 9 7 7 7 7 6 5 5 5 5 5 4 3 2 3 1 2 5 3 3 2 1 1 4 3 2 3 3 3 3 3 4 3 4 5 5 5 5 4 4 4 3 3 4 4 4 4 4 4 3 4 3 3 4 4 3 3 3 3 4 4 4 5 6 6 7 6 6 7 7 7 7 7 7 7 7 7 8 8 8
15 14 13 13 11 10 9 8 8 7 7 6 6 6 6 5 4 3 3 3 2 2 2 4 2 4 2 2 3 4 3 2 4 5 5 3 4 4 3 5 6 4 3 5 4 4 4 4 4 3 4 5 5 4 4 3 3 3 5 6 5 5 4 3 4 5 5 5 5 5 6 6 5 5 5 5 5 5 5 5 5 5 4 4 5
15 15 14 14 12 11 10 9 8 8 8 7 7 7 6 5 5 4 4 4 4 5 3 4 2 3 2 1 1 2 4 4 5 5 7 4 3 4 4 4 5 2 3 6 5 6 6 5 4 3 3 5 4 4 5 5 5 4 5 6 7 6 5 4 4 5 5 4 4 4 4 4 3 3 3 2 2 3 3 4 4 4 4 3 3
16 16 15 15 14 12 11 10 9 9 8 8 7 7 7 6 6 5 5 4 2 6 6 4 4 4 2 1 0 1 2 6 6 2 3 5 4 4 4 4 5 3 4 6 5 6 7 5 5 4 3 3 3 5 6 6 6 5 5 6 7 7 5 5 5 5 5 4 4 3 3 2 2 2 1 0 1 1 2 2 3 3 3 3 2
16 16 16 15 15 13 12 11 10 9 8 8 7 7 7 6 6 5 5 4 2 2 5 5 4 5 4 2 2 1 3 2 3 1 1 4 5 5 4 3 4 3 3 5 5 6 7 5 4 4 4 3 3 5 6 6 7 6 5 5 6 6 6 6 6 6 5 4 4 3 2 1 0 0 1 1 1 1 2 2 2 3 3 3 3
17 17 17 16 16 14 13 12 11 10 9 8 8 8 7 6 6 6 5 5 3 1 4 6 5 5 5 3 3 1 4 2 2 2 1 2 3 4 5 4 4 4 4 4 5 7 6 5 6 5 4 4 4 5 6 6 7 6 5 6 6 7 7 7 7 6 5 4 3 3 2 2 2 2 2 2 3 3 2 3 3 3 3 3 3
18 18 18 17 17 15 14 13 12 11 10 10 10 8 6 6 6 6 6 6 6 5 5 6 6 7 7 5 4 1 2 2 2 2 2 2 3 4 5 6 7 7 7 3 2 7 6 4 6 6 5 5 5 6 7 6 6 5 5 6 7 7 8 7 7 6 5 4 3 3 3 2 2 2 3 3 3 4 4 4 3 3 3 4 4
19 18 18 18 18 17 15 14 13 12 12 11 10 8 7 8 8 8 7 7 7 7 6 6 6 7 8 6 4 4 4 4 4 3 2 2 3 5 6 7 6 6 8 5 2 5 6 3 4 5 5 5 6 7 7 7 6 5 6 6 7 7 8 7 6 6 4 4 3 2 2 2 3 3 4 4 5 5 5 5 5 5 5 6 6
18 19 18 19 19 18 17 16 15 13 12 11 10 9 9 9 9 8 9 8 7 7 7 7 7 5 8 7 5 5 5 5 5 6 5 4 3 5 9 9 6 5 6 6 6 6 6 5 4 5 6 6 7 7 7 8 7 7 7 7 7 7 7 6 6 5 4 3 2 1 1 1 2 3 4 4 5 6 6 6 6 7 7 7 7
17 18 19 19 19 18 18 16 15 14 14 12 11 11 10 11 10 10 10 9 8 8 8 8 8 6 7 8 7 7 6 6 6 5 5 5 5 4 7 6 6 8 5 3 6 5 5 6 5 4 6 6 6 7 7 8 8 8 8 7 7 7 7 7 6 6 5 4 3 3 2 2 2 3 4 5 6 6 7 7 8 8 8 9 9
17 17 19 19 19 19 18 17 16 16 15 14 13 12 11 11 11 11 11 11 10 10 10 10 10 9 9 9 9 9 8 8 7 6 5 5 4 4 2 2 3 7 6 3 5 6 6 7 8 6 6 6 6 7 7 8 9 10 9 8 8 8 8 7 7 7 6 6 5 5 4 4 5 5 6 7 8 9 9 10 10 11 11 11 11
18 18 19 19 20 19 19 18 17 17 16 15 14 13 11 11 11 12 12 12 12 11 11 11 12 12 11 10 10 10 9 9 8 8 8 7 5 5 3 1 3 7 8 6 6 7 8 9 9 8 8 8 7 7 7 8 10 11 9 9 10 9 9 9 8 8 8 7 7 7 6 7 7 8 9 10 11 12 13 13 13 14 14 14 14
19 19 19 19 20 20 19 19 18 18 17 16 15 14 13 12 12 13 13 13 13 12 12 12 13 13 12 11 11 10 10 10 9 8 9 9 8 7 4 2 4 5 7 6 6 7 9 11 11 9 9 9 8 9 9 8 10 11 9 10 11 11 10 11 10 10 10 10 9 9 9 10 11 12 12 13 14 15 15 16 16 16 17 17 17
20 20 19 19 19 20 20 19 19 19 19 18 16 15 15 13 13 14 14 14 14 14 13 13 13 14 14 12 11 11 10 10 10 10 9 8 8 8 6 4 4 4 5 6 7 9 11 11 12 11 10 11 10 10 10 9 10 11 9 9 11 13 12 12 12 13 13 13 13 13 13 13 14 15 15 16 17 17 17 17 17 18 18 18 18
19 20 20 20 20 20 21 20 20 20 20 19 18 17 16 15 14 15 15 15 15 15 14 14 14 15 15 13 13 11 10 10 10 10 9 7 6 7 7 7 5 3 3 5 6 9 11 10 10 11 11 12 11 11 11 10 11 12 11 10 11 13 13 12 11 13 14 15 15 15 16 16 16 17 18 18 18 17 17 17 17 17 18 18 19
20 19 20 21 22 22 22 21 21 21 21 21 20 18 18 17 16 16 16 16 16 16 16 15 15 15 15 15 14 13 11 11 11 10 9 8 7 7 8 9 8 5 3 4 5 7 10 10 10 12 13 12 11 11 11 11 12 13 11 10 10 11 12 11 11 12 13 14 15 15 16 16 17 18 18 18 17 16 16 16 16 17 17 18 19
21 20 20 21 22 23 23 22 22 22 22 22 21 20 19 18 17 17 17 17 17 17 17 17 16 16 16 16 16 14 12 12 12 11 11 10 9 9 9 9 9 8 5 4 5 6 8 8 8 11 15 12 11 11 11 11 13 13 11 9 10 11 12 12 12 11 11 12 13 14 15 15 16 16 15 15 15 15 15 15 15 16 16 17 17
22 22 21 21 22 23 23 23 22 23 23 23 22 21 21 19 18 17 18 18 18 18 18 18 17 17 17 17 16 16 14 13 13 13 12 12 12 11 11 11 11 10 9 6 4 5 7 8 7 8 13 12 9 10 10 10 12 13 10 9 10 12 12 12 13 12 11 12 13 13 13 13 13 12 12 13 13 14 14 14 14 14 15 15 15
23 23 23 22 22 23 23 23 23 23 23 23 23 23 22 20 19 18 19 20 19 19 19 19 18 18 19 19 18 17 16 14 14 14 13 14 13 13 12 12 12 12 11 9 6 6 7 8 7 6 9 10 9 10 10 10 11 13 11 9 11 13 12 12 14 13 12 12 12 12 11 10 10 11 12 13 13 14 14 14 13 14 14 15 15
24 24 24 24 24 24 24 23 23 24 24 24 23 23 23 22 21 19 20 21 22 21 20 20 20 19 20 20 19 18 18 16 15 14 14 14 15 14 14 14 14 13 13 12 10 9 9 9 9 8 8 9 10 11 10 10 11 12 12 11 12 13 11 12 14 15 13 12 11 11 10 10 10 11 12 13 14 14 14 14 14 14 15 15 15
25 25 25 25 25 24 24 23 24 24 24 25 24 24 24 23 22 21 21 23 23 23 22 22 22 21 20 21 21 20 19 18 17 15 15 15 15 16 15 15 14 14 15 15 12 11 10 10 11 10 9 9 10 11 12 12 11 11 12 12 13 13 12 12 13 15 15 14 13 11 10 10 11 11 13 13 13 13 13 14 15 15 15 15 15
26 26 26 25 25 25 25 24 24 24 24 25 25 24 25 24 24 22 22 23 25 25 24 24 23 22 22 22 22 21 20 20 19 18 16 16 16 16 16 16 15 15 15 16 14 12 11 11 12 12 11 11 12 11 12 12 12 12 12 12 13 13 13 13 13 14 15 15 14 13 12 12 11 12 13 13 12 12 13 14 15 16 17 16 16
26 26 26 26 25 25 25 25 24 24 24 25 25 25 25 25 24 24 24 24 25 26 25 25 24 24 23 23 23 23 22 21 21 20 18 18 17 17 17 16 16 15 15 16 16 14 12 11 12 12 12 12 13 13 12 13 13 13 13 13 13 14 14 14 14 14 15 15 14 14 14 14 13 13 13 13 11 11 13 16 17 18 17 17 16
29 27 26 26 26 26 26 26 26 26 25 26 26 26 25 25 25 25 25 25 26 26 26 26 25 25 25 24 24 23 23 22 22 21 21 20 19 18 17 17 17 16 15 15 16 15 14 12 12 12 12 12 12 13 13 14 14 14 14 14 14 15 14 15 14 13 15 16 16 16 15 15 15 14 14 13 12 14 16 18 18 18 16 16 16
30 28 27 27 27 27 27 27 27 27 27 27 27 27 26 25 26 26 25 25 26 26 26 26 26 26 26 25 24 24 25 24 23 22 22 22 21 19 19 18 17 17 16 16 15 16 15 14 13 12 13 13 13 13 14 15 15 14 14 14 15 16 15 16 15 13 14 15 16 15 14 13 13 14 14 14 15 17 19 19 18 16 16 17 17
29 29 29 28 28 28 28 28 28 28 28 28 28 28 28 27 27 27 26 25 26 26 26 26 27 26 26 26 25 25 26 26 25 23 23 23 22 21 21 19 18 18 17 17 16 16 16 15 15 14 14 14 14 14 14 15 15 15 14 14 15 16 17 17 16 15 14 15 14 14 14 13 13 15 17 17 17 19 18 17 15 15 16 17 16
29 30 30 29 28 28 29 29 29 29 30 30 30 30 29 28 28 27 27 26 26 26 26 27 27 26 26 26 26 26 26 27 26 25 24 24 23 22 22 21 20 19 18 17 17 17 16 16 15 15 14 14 15 15 14 15 16 16 16 15 15 15 16 17 17 16 15 14 14 14 14 13 13 16 17 17 17 16 14 13 13 14 14 13 12
29 29 29 29 29 29 29 30 30 30 30 31 31 31 30 29 28 28 27 27 27 27 27 27 27 27 26 26 26 27 27 28 28 27 25 25 24 23 23 23 22 21 20 18 17 17 17 17 16 15 14 15 15 15 15 17 17 16 15 15 15 14 14 14 16 17 16 14 14 15 14 13 13 14 14 14 15 15 15 15 16 15 12 10 11
28 28 28 29 29 29 29 30 30 30 30 31 33 35 34 31 29 28 27 27 27 27 27 27 27 27 27 27 27 27 28 29 30 31 30 28 26 24 23 24 24 23 21 20 19 18 18 17 17 16 15 15 16 17 17 18 18 16 15 15 15 14 13 12 13 15 17 15 14 15 14 12 12 12 12 13 14 14 16 16 15 13 11 9 11
29 27 27 28 29 29 29 29 30 30 30 32 35 38 39 36 32 29 28 28 27 28 28 28 27 27 28 28 27 28 30 32 33 34 34 33 31 29 25 24 26 25 23 22 21 20 20 18 17 16 16 16 17 18 18 18 17 17 16 15 14 13 12 12 11 11 14 15 13 12 13 11 10 12 12 13 13 13 14 14 13 14 14 14 15
29 28 27 28 29 29 28 28 29 30 30 32 36 39 41 42 39 32 28 28 28 28 29 29 29 28 28 29 29 28 30 33 35 36 37 36 34 34 31 28 27 28 27 25 23 22 22 20 19 18 17 17 17 18 19 18 17 17 17 15 14 14 12 12 11 9 11 13 12 11 12 10 10 13 15 15 15 14 13 13 13 15 16 16 17
28 29 29 29 29 30 29 29 29 30 30 32 36 40 42 44 44 39 31 27 28 29 30 31 30 30 30 30 30 29 29 33 36 36 37 39 37 36 35 33 31 31 31 29 26 25 24 22 20 20 20 18 17 19 19 17 16 17 16 15 14 14 13 12 12 10 9 11 11 10 11 10 11 14 15 14 13 13 12 12 13 15 16 16 17
29 30 30 29 29 30 31 30 30 30 30 31 35 40 42 43 45 44 36 28 28 30 31 32 31 30 30 30 30 30 29 31 36 35 33 36 39 38 38 37 35 33 34 33 31 30 29 25 21 20 22 21 19 18 18 17 16 17 16 16 15 14 13 12 11 10 9 10 10 8 10 11 11 12 13 11 11 11 12 13 15 15 14 15 15
29 29 29 30 30 30 31 31 30 30 30 32 34 38 41 42 44 45 40 31 28 29 30 32 31 30 31 31 30 30 29 30 36 37 32 31 34 37 38 36 33 31 32 34 34 34 34 32 26 20 19 21 21 20 18 17 17 17 16 15 13 11 10 9 9 11 12 12 12 10 10 11 11 11 11 9 9 10 11 12 13 13 14 15 14
27 28 28 29 30 30 30 30 31 31 31 32 34 36 39 41 42 45 43 35 29 29 29 31 32 31 31 32 32 31 30 29 34 38 36 30 28 31 33 31 30 28 29 31 33 34 35 35 32 24 19 19 21 21 21 19 17 16 15 13 12 10 8 9 10 12 13 13 14 14 12 10 9 9 9 8 9 10 10 12 15 16 16 14 14
27 27 27 28 28 28 29 30 31 31 30 32 35 36 38 40 41 45 45 37 31 31 30 30 32 32 34 35 33 32 31 31 33 38 39 34 28 27 28 27 26 25 25 26 29 32 34 34 33 29 24 23 23 22 23 22 19 17 16 15 15 13 11 9 10 11 12 12 15 18 14 11 8 7 8 8 9 10 12 13 14 14 13 12 13
26 26 25 25 25 26 28 30 30 30 29 30 34 36 38 40 42 46 45 37 32 33 33 32 33 34 35 36 36 34 33 33 34 37 40 38 32 28 28 26 25 25 25 23 25 29 31 30 30 30 29 27 26 23 22 23 22 20 18 16 15 14 12 11 11 11 11 12 17 21 16 10 7 6 7 9 10 11 12 11 10 11 12 13 14
24 24 24 24 24 25 26 27 29 30 29 30 33 36 38 40 42 46 44 37 34 36 34 32 32 33 35 37 39 39 36 34 35 38 41 42 36 31 29 28 26 26 27 25 24 27 31 30 28 30 30 29 28 24 22 23 24 23 20 16 14 13 13 13 12 10 9 8 12 18 14 9 7 6 7 8 8 9 9 9 10 11 12 12 12
Wind_Direction
186 189 196 193 192 193 202 199 182 227 310 30 7 11 11 10 11 358 15 355 339 359 348 328 350 101 113 104 90 78 61 54 95 104 108 117 124 125 121 110 107 112 118 129 143 164 174 173 174 172 171 172 171 171 172 182 185 183 191 191 181 184 185 181 186 183 181 184 183 189 197 206 219 225 231 247 259 264 273 284 290 298 302 307 312
188 190 194 192 191 199 209 206 208 232 296 1 4 356 350 357 352 346 354 345 349 358 348 348 32 107 126 130 141 132 97 52 118 120 116 128 133 135 132 116 110 111 108 115 128 145 162 171 181 182 180 179 179 182 181 181 176 175 187 193 191 191 190 189 195 197 194 197 201 207 214 221 231 240 249 253 261 262 265 277 285 295 302 303 309
190 188 194 199 197 201 207 210 221 236 289 320 310 306 330 342 342 335 330 338 345 352 356 5 64 121 126 142 170 115 64 21 122 125 114 127 140 145 142 127 120 115 107 107 113 125 139 154 172 184 187 185 184 186 186 185 181 179 186 192 197 198 199 197 199 206 208 211 216 222 229 233 238 250 263 263 264 268 269 274 279 287 297 302 306
189 188 201 205 204 206 203 211 224 228 264 291 295 279 295 309 305 307 312 335 335 357 6 355 46 116 115 91 77 48 26 22 78 106 107 120 143 148 144 140 137 125 111 105 107 112 118 136 158 179 188 186 186 188 188 188 187 186 187 193 199 202 206 205 207 213 214 219 225 232 242 245 249 251 257 260 263 271 275 276 277 282 290 296 301
200 198 209 210 205 208 202 214 226 229 262 270 267 251 269 295 277 293 314 330 335 13 358 348 32 315 141 33 50 41 3 121 100 107 119 119 141 148 145 142 140 135 127 114 109 109 109 124 142 165 184 188 188 191 193 190 191 192 194 198 201 204 209 210 216 222 221 225 229 236 247 252 254 252 252 260 266 273 278 280 282 286 289 291 296
204 204 211 215 210 207 208 221 220 215 243 240 258 258 275 296 294 310 320 329 341 25 10 65 222 289 342 352 39 36 353 85 97 111 118 103 135 150 146 135 137 143 137 119 115 109 103 120 130 145 171 185 192 199 202 197 197 201 204 207 205 206 211 215 221 226 228 230 235 241 250 254 256 258 264 271 274 278 280 284 288 288 286 288 290
204 205 211 218 216 210 212 224 212 211 235 219 265 288 292 290 308 320 321 337 0 109 106 107 249 31 33 336 30 44 29 61 60 81 97 98 129 147 145 137 137 140 134 126 138 114 98 119 133 145 160 174 193 203 203 200 205 210 212 215 213 211 214 221 224 228 232 233 239 246 251 256 260 265 269 273 276 278 279 281 284 282 281 282 284
202 205 212 218 222 217 211 216 212 225 237 221 259 276 279 284 299 322 338 351 80 133 123 108 305 67 79 283 34 57 61 63 44 67 84 119 128 137 139 136 129 128 135 139 149 119 95 114 132 147 156 165 185 200 203 198 207 215 214 217 220 222 223 228 232 236 240 239 240 248 254 257 261 267 271 276 277 275 277 279 279 278 278 279 283
201 206 213 219 223 222 215 205 208 227 229 237 256 254 257 264 273 310 349 342 93 107 119 111 58 61 146 109 39 35 90 75 28 68 83 116 124 133 134 134 129 124 134 135 140 128 90 93 109 132 148 163 180 191 202 198 202 210 216 223 223 227 231 233 238 240 243 249 248 249 257 262 262 264 270 277 279 277 277 279 280 281 281 281 282
201 206 211 221 224 226 222 201 205 225 225 239 247 239 253 262 270 290 350 350 6 48 18 29 27 356 118 90 38 313 102 98 76 81 104 111 114 130 130 135 133 123 136 135 135 140 117 99 108 121 130 146 167 173 184 188 192 197 208 223 225 226 231 234 239 240 238 245 252 250 254 264 267 266 270 273 272 274 276 278 279 279 280 279 280
201 205 210 219 225 229 225 211 213 222 230 241 238 226 248 260 270 282 8 73 74 60 55 48 32 352 354 39 70 316 354 81 122 110 102 104 111 128 125 123 122 115 140 144 134 129 122 112 124 128 116 119 143 152 157 158 163 172 186 212 225 229 233 238 244 246 242 240 248 253 254 262 271 274 274 272 271 273 277 280 281 281 279 278 279
201 204 211 215 222 229 221 216 221 221 233 246 246 233 233 247 259 247 145 133 110 100 95 51 358 16 348 349 101 222 264 287 253 133 119 110 118 131 124 116 113 102 112 131 128 118 112 117 131 131 120 116 123 131 132 123 132 155 168 190 217 229 233 243 251 252 247 243 247 255 258 258 266 274 275 275 280 284 284 284 284 283 282 281 280
199 202 209 213 219 226 219 214 221 220 223 232 239 234 223 236 244 213 167 136 135 151 114 83 296 188 267 267 163 188 183 207 250 142 132 132 129 131 124 119 113 106 92 84 90 101 105 112 122 126 122 120 124 120 111 105 104 131 155 170 200 217 226 238 249 253 246 240 244 251 254 253 256 266 274 277 281 284 284 284 283 282 280 276 275
198 201 206 212 214 217 215 211 218 221 216 219 227 223 222 232 224 200 156 137 180 102 108 148 217 160 125 147 153 154 156 213 220 154 146 149 141 129 118 116 106 104 108 100 94 99 98 95 109 120 118 120 131 124 110 107 92 106 141 150 163 173 195 218 224 226 219 219 232 240 244 249 254 260 267 272 274 278 281 285 289 289 284 275 272
198 201 204 209 209 207 209 211 215 217 212 217 222 217 219 226 216 193 154 148 173 95 114 239 231 108 132 231 174 155 143 225 227 163 145 160 151 127 97 89 91 89 105 109 105 102 95 92 99 106 120 131 145 140 134 125 91 94 128 135 136 141 155 177 187 195 196 199 212 226 235 244 252 255 258 259 264 273 279 287 298 305 303 289 285
200 201 204 207 206 204 209 212 210 208 207 210 214 216 218 216 206 188 178 182 170 141 165 253 254 140 175 217 208 189 154 168 197 165 144 164 170 123 104 86 89 74 83 91 86 91 91 90 93 80 95 122 138 137 133 126 105 95 113 126 132 136 140 144 148 160 168 172 181 193 208 220 231 240 245 242 255 276 285 294 308 321 326 317 307
202 203 205 207 205 204 206 209 207 202 205 209 208 214 216 209 202 185 189 220 199 146 157 209 242 243 281 332 280 312 128 152 169 199 146 156 151 115 110 106 96 63 75 91 97 107 100 90 95 93 89 104 119 121 120 120 114 108 113 127 137 144 150 147 140 142 143 142 146 151 160 172 183 191 202 218 296 319 338 348 345 350 357 352 338
204 204 206 207 207 204 203 207 206 199 202 211 210 213 216 206 201 188 183 213 260 143 160 177 206 234 263 292 267 6 36 128 152 344 3 134 141 131 122 119 114 114 120 127 142 131 106 95 96 94 102 109 115 119 112 117 131 137 139 143 141 146 153 147 138 135 134 132 131 132 131 123 106 17 6 342 349 0 12 16 9 9 11 7 358
205 205 206 207 208 207 206 208 209 204 201 205 209 215 215 201 195 189 177 180 191 216 192 168 168 212 221 219 243 329 32 47 105 117 146 136 155 157 147 157 159 159 179 190 163 135 118 126 123 106 115 124 127 128 121 132 154 160 154 150 149 148 148 146 142 138 132 124 113 104 88 46 7 345 334 323 322 325 331 340 343 347 347 345 342
206 206 206 206 208 208 208 209 212 212 208 207 209 210 206 193 187 181 172 169 168 198 218 179 167 194 203 204 213 193 90 123 113 123 171 167 174 177 168 179 193 183 177 199 128 117 127 149 134 124 135 138 140 135 129 141 157 154 148 149 151 149 145 146 145 143 138 129 114 98 90 67 42 11 352 339 332 329 329 332 332 333 334 332 332
207 206 205 206 207 208 208 209 211 213 213 214 210 203 198 192 188 178 173 173 171 193 217 202 195 187 182 201 202 180 187 178 160 164 200 211 171 165 174 190 201 179 168 176 147 130 138 146 131 137 149 145 145 146 142 148 154 159 161 156 154 151 148 149 148 149 150 142 132 105 80 54 36 21 9 1 353 348 342 338 335 332 330 328 326
207 207 206 206 206 208 208 209 211 212 214 216 208 199 198 194 193 185 179 179 176 192 209 211 223 197 169 188 198 189 195 189 187 181 184 231 230 171 172 188 191 171 180 181 167 161 150 155 187 171 161 159 154 155 160 163 166 176 177 167 165 163 159 163 164 165 171 169 162 145 56 11 358 350 347 344 339 337 332 328 324 320 318 317 315
208 208 208 208 207 208 210 210 211 212 212 213 210 203 201 196 194 189 185 185 183 192 206 209 218 208 179 185 193 194 191 187 200 195 181 212 243 207 169 172 172 166 181 159 147 172 167 172 211 192 159 174 172 171 178 175 177 192 198 188 181 179 178 181 186 189 192 198 206 216 237 260 283 294 302 305 305 306 305 304 303 302 303 304 305
209 208 209 210 208 208 210 210 209 209 209 210 210 207 205 198 191 189 188 189 188 193 204 209 209 206 197 191 194 200 195 193 201 196 196 216 245 260 220 100 132 158 165 151 160 196 206 199 210 196 182 199 189 182 186 179 190 208 209 205 204 201 200 201 200 205 208 213 221 230 242 256 271 279 285 288 288 289 290 290 290 292 293 294 296
210 209 210 209 208 207 209 209 207 207 206 207 208 206 205 199 190 190 190 190 190 195 205 211 208 207 206 200 200 205 199 200 209 196 189 202 226 253 252 172 173 168 159 171 199 204 210 219 221 204 190 197 198 196 197 193 205 221 220 218 226 224 222 226 222 221 226 229 235 243 251 258 265 270 273 276 278 280 280 280 281 282 283 284 285
212 212 211 209 208 208 208 208 207 205 204 204 204 202 201 198 193 191 192 192 192 196 207 214 211 210 213 211 208 210 204 199 209 209 194 189 199 221 233 212 224 195 153 168 214 216 211 213 220 222 198 193 208 210 210 217 221 229 227 221 234 244 243 243 240 237 240 241 245 250 253 259 265 268 273 277 280 281 281 280 280 279 279 278 278
214 213 212 210 209 208 207 208 208 205 203 201 200 199 197 196 195 193 194 194 194 198 207 215 215 212 214 219 218 215 209 201 201 208 210 198 191 203 208 204 232 221 168 179 206 224 233 216 203 214 209 203 217 219 215 226 233 237 233 225 239 255 256 253 249 246 246 247 249 252 255 261 267 273 278 283 286 286 285 285 285 283 282 280 278
215 213 211 209 209 207 206 207 206 204 203 200 198 197 196 196 196 195 195 194 195 199 206 213 217 216 215 218 224 224 213 210 207 203 211 214 194 193 197 199 214 220 199 201 201 213 231 224 199 201 207 207 215 226 225 227 238 247 248 243 246 255 258 255 250 248 249 252 253 255 259 263 270 276 281 286 288 288 288 287 287 287 287 285 284
215 213 211 209 208 207 206 205 204 204 204 202 199 198 197 198 198 197 196 194 195 198 204 213 217 217 217 215 220 228 219 211 215 208 205 209 199 195 197 200 211 219 209 207 216 216 213 217 209 193 192 201 207 220 227 224 236 246 244 244 244 246 250 250 252 253 250 251 254 257 261 266 272 277 281 284 286 287 289 290 290 289 289 288 287
215 214 213 210 208 208 206 205 203 202 202 202 202 200 197 198 199 200 200 196 196 200 204 211 216 215 218 216 215 223 223 214 215 213 206 203 201 202 202 202 208 218 230 218 215 222 212 221 225 188 182 195 203 213 221 222 234 239 233 236 238 237 242 243 247 251 245 245 250 255 260 265 270 275 279 282 285 287 289 290 291 291 292 293 291
213 214 213 211 209 207 206 206 205 202 201 201 200 199 198 198 199 199 201 199 197 200 203 208 215 215 216 217 215 217 221 217 215 215 209 203 203 205 205 206 207 211 227 238 224 220 218 227 237 190 178 190 204 213 217 219 232 235 227 230 237 238 239 240 244 245 240 241 246 251 256 262 269 277 282 286 287 288 289 289 289 290 292 295 296
213 213 212 211 210 209 209 208 208 205 202 200 199 199 200 200 200 200 201 201 199 202 205 207 212 214 215 216 215 216 218 218 217 216 212 206 206 208 207 206 209 208 213 224 232 232 227 228 235 210 185 191 204 212 216 218 227 232 226 224 236 240 237 238 243 241 236 240 245 250 255 263 273 282 286 288 287 286 287 287 287 288 290 293 297
212 211 211 211 210 211 211 210 209 207 203 202 200 199 201 201 201 202 200 200 202 205 208 209 210 212 214 214 214 214 216 217 218 216 213 209 207 211 211 207 208 209 207 214 224 232 234 230 232 232 215 205 206 210 217 219 221 228 228 222 229 236 232 232 237 237 237 243 247 250 258 265 272 279 281 283 285 286 286 285 285 285 287 291 294
211 211 211 210 210 210 211 211 211 208 203 202 201 199 202 202 200 202 202 200 203 205 208 210 210 210 212 212 211 212 213 215 217 217 216 212 209 211 212 210 209 209 207 209 217 227 231 228 227 231 229 223 216 210 216 222 222 224 224 220 224 229 228 228 232 234 237 241 246 251 259 266 270 273 277 279 280 282 283 282 284 284 284 289 291
211 211 211 210 208 208 210 211 210 210 206 202 202 201 202 202 201 202 204 203 203 204 207 210 209 209 210 211 210 209 210 212 214 216 217 215 213 212 213 213 212 211 209 209 214 222 229 228 225 225 224 224 223 218 217 222 227 226 222 223 225 225 225 229 233 237 238 238 243 250 255 263 271 272 274 275 274 278 282 282 282 281 282 287 292
213 212 210 210 208 205 207 209 208 209 207 203 204 205 204 202 203 204 205 205 205 204 207 210 208 207 209 210 210 208 208 210 211 214 216 216 215 214 214 215 215 215 212 209 212 219 228 232 229 226 225 221 220 221 219 219 224 228 228 227 227 227 228 230 235 241 239 237 241 247 252 263 270 270 270 270 270 278 283 284 283 281 282 286 291
214 213 210 208 208 205 204 206 205 205 206 204 204 206 206 204 204 206 206 206 206 205 207 209 208 207 209 211 211 208 207 208 209 210 212 213 213 214 214 214 214 215 215 213 213 214 221 230 233 229 226 223 220 218 216 216 218 223 227 229 230 232 233 234 238 239 238 241 244 245 252 263 267 268 269 266 268 278 284 285 282 279 280 285 289
212 213 211 207 206 205 203 203 204 203 203 204 204 206 207 206 205 206 207 209 208 207 208 209 208 207 209 212 212 210 209 209 209 209 209 210 211 212 213 213 213 213 215 216 214 214 217 224 230 229 224 223 223 220 216 217 217 218 222 227 231 233 233 235 239 238 236 241 242 241 248 259 265 270 273 269 270 278 284 284 281 278 281 286 289
211 212 211 208 205 205 203 202 203 202 202 203 204 206 207 208 207 206 207 210 210 209 210 211 210 209 209 212 214 213 211 211 210 208 207 207 209 211 211 211 211 212 214 216 215 214 216 219 223 226 225 223 223 224 222 219 220 223 223 225 229 229 228 231 236 240 240 239 237 239 243 248 259 268 269 270 275 281 284 283 279 278 283 287 287
211 211 211 209 205 204 203 203 203 202 201 202 204 205 206 208 208 206 207 209 210 211 213 213 213 213 212 213 215 215 214 213 211 209 207 205 206 209 210 208 209 210 212 214 214 214 216 220 221 222 225 225 223 224 224 221 222 224 223 226 231 229 226 226 230 238 243 239 237 244 248 249 257 263 264 269 278 284 284 281 281 286 289 285 279
211 212 212 210 207 204 203 203 203 203 202 203 204 205 206 206 207 208 208 209 210 213 215 215 215 215 215 215 217 218 216 215 213 211 210 207 206 206 206 205 206 208 210 212 213 214 215 220 222 220 221 224 223 222 222 220 221 222 220 223 231 233 231 229 228 231 233 234 241 251 257 258 260 260 259 267 278 282 280 278 277 280 282 274 264
212 211 212 213 211 208 205 203 203 204 204 206 208 209 209 207 206 207 209 209 210 213 216 216 216 216 217 218 219 220 219 217 215 213 212 211 209 208 207 205 204 203 206 209 211 214 216 218 219 218 219 223 224 225 227 225 224 224 223 221 226 232 232 232 235 231 228 232 241 250 255 258 260 258 257 265 277 280 278 274 265 260 267 272 271
212 212 212 214 214 212 209 206 205 206 207 209 211 212 212 211 208 207 208 208 209 212 216 216 215 216 217 218 219 220 219 218 217 215 215 215 213 211 210 209 207 204 204 206 209 215 220 220 219 218 219 224 228 231 233 232 229 228 227 221 222 228 227 228 235 233 228 227 230 246 257 255 253 258 265 271 274 272 272 270 264 267 280 286 283
210 212 212 213 215 215 214 211 210 210 211 212 213 213 215 215 212 209 208 209 209 211 216 217 215 215 216 217 218 218 217 217 216 216 217 218 216 215 214 212 211 209 208 208 209 214 220 222 221 221 222 226 230 233 234 234 230 230 230 225 224 226 226 230 235 236 232 225 222 242 260 256 250 256 262 265 264 267 273 273 272 277 282 283 282
208 210 212 212 213 215 216 215 215 215 215 214 214 215 216 217 215 212 210 210 211 212 216 219 217 214 214 214 215 215 215 215 213 212 215 218 218 217 217 216 215 214 213 212 212 214 218 220 221 223 226 227 228 231 233 231 229 229 226 223 222 223 226 232 238 239 234 224 220 238 257 259 261 264 265 267 269 277 283 276 274 278 279 279 282
208 210 212 212 213 214 216 217 218 219 219 218 216 216 217 218 217 214 212 213 215 215 217 218 218 216 214 213 214 215 214 213 210 207 208 213 216 216 216 217 217 217 217 217 216 216 217 219 222 225 228 229 230 233 232 228 226 226 223 221 221 223 227 233 241 244 236 220 215 233 254 257 259 265 272 278 278 280 278 270 270 277 280 283 287
209 210 212 213 214 215 216 218 220 221 222 222 220 217 217 219 218 216 213 213 216 218 218 218 218 218 217 215 215 214 212 210 209 206 203 204 208 212 213 215 217 218 219 219 220 219 218 220 223 226 227 227 229 232 230 224 222 223 223 224 224 225 228 234 240 244 239 228 220 227 245 252 257 265 271 276 277 277 278 278 281 284 285 286 289
211 212 214 215 216 217 217 217 220 223 223 223 222 220 217 218 218 216 214 214 217 220 221 221 219 217 217 216 216 215 211 209 209 209 206 201 199 203 207 210 214 217 221 222 222 222 222 222 222 224 225 224 226 227 225 220 217 216 218 220 218 216 219 229 240 244 240 230 217 214 228 244 256 269 273 275 279 280 281 284 287 286 282 280 284
213 214 215 217 218 219 219 219 220 223 225 224 224 222 218 216 215 214 213 213 218 223 225 225 223 221 219 217 215 214 212 209 209 210 208 202 195 195 200 203 207 214 220 222 222 223 224 224 224 224 224 224 225 225 221 217 212 208 210 213 216 217 214 219 233 239 239 229 208 204 218 237 242 252 267 272 277 278 278 280 282 282 280 278 283
215 217 218 220 221 222 223 223 222 224 227 226 225 224 220 216 213 213 212 211 216 222 224 225 225 224 223 220 216 215 215 212 210 209 207 204 197 195 197 198 202 211 215 216 216 218 221 224 225 224 223 224 226 226 223 220 215 210 209 211 218 223 220 220 228 234 245 240 211 201 209 224 228 242 264 271 274 273 273 276 280 284 286 286 289
217 219 220 222 224 224 225 226 225 225 227 228 227 225 221 217 213 212 210 210 215 220 221 222 224 225 226 225 221 218 218 216 213 209 207 205 200 197 197 197 201 209 210 209 209 209 209 213 217 218 219 221 223 223 223 221 218 215 213 215 223 227 225 229 232 233 248 247 201 190 200 217 223 237 258 269 276 275 274 280 284 283 282 283 289